Location: Washington
(38.8950°N, 77.0367°W)
Time: 23:45:19
(UTC-04:00)

N. Korean satellite - Visible Passes

Search period start: 18 September 2014 00:00
Search period end: 28 September 2014 00:00
Orbit: 484 x 557 km, 97.3° (Epoch: 16 September)

Date Brightness Start Highest point End Pass type
(mag) Time Alt. Az. Time Alt. Az. Time Alt. Az.
18 Sep 7.9 19:57:24 12° ESE 19:59:56 22° ENE 20:02:49 10° NNE visible
18 Sep 9.1 21:32:31 16° SW 21:34:01 20° W 21:36:49 10° NW visible
19 Sep 8.4 19:44:26 10° ESE 19:46:41 16° ENE 19:48:56 10° NNE visible
19 Sep 8.4 21:19:14 23° SW 21:20:37 30° W 21:23:52 10° NW visible
20 Sep 7.6 21:05:57 31° SSW 21:07:13 44° W 21:10:43 10° NNW visible
21 Sep 6.8 20:52:38 40° S 20:53:49 69° W 20:57:27 10° NNW visible
22 Sep 6.4 20:39:19 42° SSE 20:40:26 77° ENE 20:44:03 10° N visible
23 Sep 6.8 20:25:58 36° SE 20:27:03 49° ENE 20:30:33 10° N visible
24 Sep 7.3 20:12:37 27° ESE 20:13:40 32° ENE 20:16:55 10° N visible
24 Sep 9.6 21:47:43 13° W 21:47:56 13° W 21:49:45 10° WNW visible
25 Sep 7.8 19:59:14 20° E 20:00:18 22° ENE 20:03:09 10° NNE visible
25 Sep 9.1 21:34:21 19° W 21:34:23 19° W 21:37:04 10° NW visible
26 Sep 8.3 19:45:51 14° E 19:46:56 16° ENE 19:49:09 10° NNE visible
26 Sep 8.5 21:20:57 28° W 21:20:57 28° W 21:24:01 10° NW visible
27 Sep 8.7 19:32:39 10° E 19:33:35 11° ENE 19:34:31 10° NE visible
27 Sep 7.7 21:07:32 42° W 21:07:32 42° W 21:10:47 10° NNW visible
